{"data":{"norad_id":28628,"intl_designator":"2005-009A","name":"INMARSAT 4-F1","alt_names":[],"object_type":"PAYLOAD","status":"ACTIVE","operator":null,"country":"IM","launch_date":"2005-03-11","launch_site_code":"AFETR","launch_vehicle":null,"mission":null,"orbit_class":"UNKNOWN","rcs_meters":5.0119,"size_class":null,"mass_kg":null,"dimensions":null,"purposes":["comms"],"wikipedia_slug":null,"has_3d_model":false,"image_url":null,"decayed_at":null,"tle_current":{"epoch":"2026-05-25T01:10:04.422720Z","epoch_age_seconds":84981,"freshness":"FRESH","line1":"1 28628U 05009A   26145.04866230  .00000029  00000+0  00000+0 0  9996","line2":"2 28628   5.1386  42.7243 0002794  20.0994  15.4291  1.00272348 77440","mean_motion":1.00272348,"eccentricity":0.0002794,"inclination_deg":5.1386,"raan_deg":42.7243,"arg_perigee_deg":20.0994,"mean_anomaly_deg":15.4291,"bstar":0,"rev_number":7744,"period_min":1436.088840764,"perigee_km":35774.656350579,"apogee_km":35798.217914604,"semimajor_km":42164.574132592,"source":"CELESTRAK","updated_at":"2026-05-25T13:38:13.847928Z"}}}